Weather History for Hays, KS

Change the Weather History Date:

Monday, December 31, 2012

  Actual Average Record
Temperature  
Mean Temperature 24 °F -  
Max Temperature 30 °F 40 °F 60 °F (1999)
Min Temperature 17 °F 16 °F 6 °F (2001)
Degree Days  
Heating Degree Days 42    
Moisture  
Dew Point 18 °F    
Average Humidity 82    
Maximum Humidity 93    
Minimum Humidity 64    
Precipitation  
Precipitation 0.00 in - - ()
Sea Level Pressure  
Sea Level Pressure 30.06 in    
Wind  
Wind Speed 11 mph (NNE)    
Max Wind Speed 17 mph    
Max Gust Speed 20 mph    
Visibility 4 miles    
Events      
Averages and records for this station are not official NWS values.
T = Trace of Precipitation, MM = Missing Value Source: NWS Daily Summary

Daily Weather History Graph

Daily Weather History Graph

Search for Another Location

Airport:

Trip Planner

Search our weather history database for the weather conditions in past years. The results will help you decide how hot, cold, wet, or windy it might be!

Date:

Astronomy

Dec. 31, 2012 Rise Set
Actual Time 7:55 AM CST 5:25 PM CST
Civil Twilight 7:25 AM CST 5:55 PM CST
Nautical Twilight 6:52 AM CST 6:28 PM CST
Astronomical Twilight 6:19 AM CST 7:01 PM CST
Moon 8:55 PM CST (12/31) 9:39 AM CST (12/31)
Length of Visible Light 10h 29m
Length of Day
9h 30m
Waning Gibbous, 90% of the Moon is Illuminated
Dec 31
Waning Gibbous
Jan 4
Last Quarter
Jan 11
New
Jan 18
First Quarter
Jan 26
Full

Hourly Weather History & Observations

Time (CST) Temp. Windchill Dew Point Humidity Pressure Visibility Wind Dir Wind Speed Gust Speed Precip Events Conditions
12:15 AM 30.2 °F 22.6 °F 19.4 °F 64% 30.07 in 10.0 mi NNE 8.1 mph - N/A   Overcast
12:35 AM 30.2 °F 22.6 °F 19.4 °F 64% 30.07 in 10.0 mi NNE 8.1 mph - N/A   Overcast
12:55 AM 30.2 °F 22.6 °F 19.4 °F 64% 30.06 in 10.0 mi NNE 8.1 mph - N/A   Overcast
1:15 AM 30.2 °F 21.9 °F 19.4 °F 64% 30.06 in 10.0 mi NNE 9.2 mph - N/A   Overcast
1:35 AM 30.2 °F 23.4 °F 19.4 °F 64% 30.05 in 10.0 mi NNE 6.9 mph - N/A   Overcast
1:55 AM 30.2 °F 20.8 °F 19.4 °F 64% 30.04 in 7.0 mi NE 11.5 mph - N/A   Overcast
2:15 AM 28.4 °F 18.0 °F 21.2 °F 74% 30.04 in 5.0 mi NE 12.7 mph - N/A   Overcast
2:35 AM 28.4 °F 18.0 °F 21.2 °F 74% 30.05 in 10.0 mi NE 12.7 mph - N/A   Overcast
2:55 AM 28.4 °F 17.0 °F 21.2 °F 74% 30.05 in 5.0 mi ENE 15.0 mph - N/A   Overcast
3:15 AM 28.4 °F 17.0 °F 21.2 °F 74% 30.04 in 5.0 mi ENE 15.0 mph - N/A   Overcast
3:35 AM 26.6 °F 16.2 °F 21.2 °F 80% 30.05 in 10.0 mi ENE 11.5 mph - N/A   Overcast
3:55 AM 26.6 °F 17.5 °F 21.2 °F 80% 30.05 in 7.0 mi ENE 9.2 mph - N/A   Overcast
4:15 AM 26.6 °F 19.1 °F 21.2 °F 80% 30.06 in 2.5 mi ENE 6.9 mph - N/A   Overcast
4:35 AM 26.6 °F 17.5 °F 21.2 °F 80% 30.04 in 2.0 mi ENE 9.2 mph - N/A   Overcast
4:55 AM 26.6 °F 19.1 °F 23.0 °F 86% 30.04 in 1.8 mi NE 6.9 mph - N/A   Overcast
5:15 AM 26.6 °F 17.5 °F 24.8 °F 93% 30.04 in 1.8 mi NE 9.2 mph - N/A   Overcast
5:35 AM 26.6 °F 17.5 °F 23.0 °F 86% 30.03 in 2.5 mi NNE 9.2 mph - N/A   Overcast
5:55 AM 26.6 °F 16.8 °F 23.0 °F 86% 30.02 in 2.0 mi NE 10.4 mph - N/A   Overcast
6:15 AM 26.6 °F 16.8 °F 23.0 °F 86% 30.02 in 2.0 mi NE 10.4 mph - N/A   Overcast
6:55 AM 24.8 °F 14.0 °F 21.2 °F 86% 30.02 in 1.8 mi NE 11.5 mph - N/A   Overcast
7:15 AM 24.8 °F 13.4 °F 21.2 °F 86% 30.02 in 1.5 mi NE 12.7 mph - N/A   Overcast
7:35 AM 24.8 °F 13.4 °F 21.2 °F 86% 30.03 in 1.8 mi NE 12.7 mph - N/A   Overcast
7:55 AM 24.8 °F 13.4 °F 21.2 °F 86% 30.03 in 1.8 mi NE 12.7 mph - N/A   Overcast
8:15 AM 24.8 °F 12.9 °F 19.4 °F 80% 30.02 in 1.2 mi NE 13.8 mph - N/A   Overcast
8:35 AM 23.0 °F 9.6 °F 19.4 °F 86% 30.03 in 1.5 mi NNE 16.1 mph - N/A   Overcast
8:55 AM 23.0 °F 10.6 °F 19.4 °F 86% 30.02 in 1.8 mi NNE 13.8 mph - N/A   Overcast
9:15 AM 23.0 °F 11.1 °F 19.4 °F 86% 30.04 in 1.5 mi NE 12.7 mph - N/A   Overcast
9:35 AM 23.0 °F 11.1 °F 19.4 °F 86% 30.04 in 2.5 mi NNE 12.7 mph - N/A   Overcast
9:55 AM 23.0 °F 11.1 °F 19.4 °F 86% 30.05 in 1.0 mi NNE 12.7 mph - N/A   Overcast
10:15 AM 23.0 °F 11.7 °F 19.4 °F 86% 30.05 in 1.0 mi NE 11.5 mph - N/A   Overcast
10:35 AM 23.0 °F 10.1 °F 19.4 °F 86% 30.05 in 2.5 mi NE 15.0 mph - N/A   Overcast
10:55 AM 23.0 °F 9.2 °F 19.4 °F 86% 30.05 in 3.0 mi NE 17.3 mph - N/A   Overcast
11:15 AM 23.0 °F 10.1 °F 19.4 °F 86% 30.06 in 3.0 mi NE 15.0 mph - N/A   Overcast
11:35 AM 23.0 °F 9.6 °F 19.4 °F 86% 30.04 in 1.8 mi NE 16.1 mph - N/A   Overcast
11:55 AM 23.0 °F 9.6 °F 17.6 °F 80% 30.04 in 1.5 mi NE 16.1 mph - N/A   Overcast
12:15 PM 23.0 °F 9.6 °F 19.4 °F 86% 30.03 in 1.0 mi NE 16.1 mph 19.6 mph N/A   Overcast
12:35 PM 23.0 °F 10.6 °F 19.4 °F 86% 30.02 in 1.0 mi NE 13.8 mph - N/A   Overcast
12:55 PM 23.0 °F 10.1 °F 19.4 °F 86% 30.02 in 0.5 mi NNE 15.0 mph - N/A   Overcast
1:15 PM 23.0 °F 10.6 °F 17.6 °F 80% 30.00 in 0.8 mi NNE 13.8 mph - N/A   Overcast
1:35 PM 21.2 °F 7.8 °F 17.6 °F 86% 30.00 in 0.8 mi NNE 15.0 mph - N/A   Overcast
1:55 PM 21.2 °F 7.8 °F 17.6 °F 86% 30.01 in 1.5 mi NNE 15.0 mph - N/A   Overcast
2:15 PM 21.2 °F 8.3 °F 17.6 °F 86% 30.02 in 1.0 mi NNE 13.8 mph - N/A   Overcast
2:35 PM 21.2 °F 7.8 °F 17.6 °F 86% 30.01 in 0.8 mi NNE 15.0 mph - N/A   Overcast
2:55 PM 21.2 °F 8.3 °F 17.6 °F 86% 30.02 in 0.8 mi NNE 13.8 mph - N/A   Overcast
3:15 PM 19.4 °F 5.0 °F 15.8 °F 86% 30.02 in 1.2 mi NNE 16.1 mph - N/A   Overcast
3:35 PM 21.2 °F 7.3 °F 17.6 °F 86% 30.03 in 1.2 mi NNE 16.1 mph - N/A   Overcast
3:55 PM 21.2 °F 7.8 °F 15.8 °F 80% 30.03 in 2.0 mi NNE 15.0 mph 19.6 mph N/A   Overcast
4:35 PM 19.4 °F 6.0 °F 15.8 °F 86% 30.04 in 2.5 mi NNE 13.8 mph - N/A   Overcast
4:55 PM 19.4 °F 6.6 °F 15.8 °F 86% 30.05 in 2.5 mi NNE 12.7 mph - N/A   Overcast
5:15 PM 19.4 °F 7.2 °F 15.8 °F 86% 30.06 in 2.5 mi NNE 11.5 mph - N/A   Overcast
5:35 PM 19.4 °F 6.6 °F 15.8 °F 86% 30.06 in 2.0 mi NNE 12.7 mph - N/A   Overcast
5:55 PM 19.4 °F 6.6 °F 15.8 °F 86% 30.06 in 5.0 mi NNE 12.7 mph - N/A   Overcast
6:15 PM 19.4 °F 6.6 °F 15.8 °F 86% 30.07 in 6.0 mi NNE 12.7 mph - N/A   Overcast
6:35 PM 19.4 °F 6.6 °F 15.8 °F 86% 30.08 in 3.0 mi NNE 12.7 mph - N/A   Overcast
6:55 PM 19.4 °F 6.6 °F 14.0 °F 80% 30.08 in 5.0 mi NNE 12.7 mph - N/A   Overcast
7:15 PM 19.4 °F 7.2 °F 14.0 °F 80% 30.09 in 7.0 mi NNE 11.5 mph - N/A   Overcast
7:35 PM 17.6 °F 6.4 °F 14.0 °F 86% 30.09 in 7.0 mi NNE 9.2 mph - N/A   Overcast
7:55 PM 17.6 °F 7.3 °F 14.0 °F 86% 30.11 in 7.0 mi NNE 8.1 mph - N/A   Overcast
8:15 PM 17.6 °F 8.2 °F 12.2 °F 79% 30.11 in 8.0 mi North 6.9 mph - N/A   Overcast
8:35 PM 17.6 °F 8.2 °F 14.0 °F 86% 30.11 in 7.0 mi North 6.9 mph - N/A   Overcast
9:15 PM 19.4 °F 8.6 °F 15.8 °F 86% 30.13 in 7.0 mi NNE 9.2 mph - N/A   Overcast
9:35 PM 19.4 °F 6.6 °F 15.8 °F 86% 30.14 in 2.5 mi NNE 12.7 mph - N/A   Overcast
9:55 PM 19.4 °F 8.6 °F 14.0 °F 80% 30.14 in 8.0 mi NNE 9.2 mph - N/A   Mostly Cloudy
10:15 PM 19.4 °F 8.6 °F 15.8 °F 86% 30.14 in 5.0 mi NNE 9.2 mph - N/A   Overcast
10:35 PM 19.4 °F 9.5 °F 15.8 °F 86% 30.15 in 5.0 mi NNE 8.1 mph - N/A   Overcast
10:55 PM 17.6 °F 6.4 °F 14.0 °F 86% 30.15 in 4.0 mi North 9.2 mph - N/A   Overcast
11:15 PM 17.6 °F 6.4 °F 14.0 °F 86% 30.15 in 5.0 mi North 9.2 mph - N/A   Overcast
11:35 PM 17.6 °F 7.3 °F 14.0 °F 86% 30.16 in 8.0 mi North 8.1 mph - N/A   Overcast
11:55 PM 17.6 °F 7.3 °F 14.0 °F 86% 30.16 in 10.0 mi North 8.1 mph - N/A   Overcast